Weather History for Moron de la Frontera, Spain

Change the Weather History Date:

Wednesday, July 31, 2013

  Actual Average Record
Temperature  
Mean Temperature 83 °F -  
Max Temperature 104 °F 92 °F 109 °F (2000)
Min Temperature 62 °F 65 °F 60 °F (2005)
Cooling Degree Days 18    
Growing Degree Days 33 (Base 50)    
Moisture  
Dew Point 53 °F    
Average Humidity 37    
Maximum Humidity 59    
Minimum Humidity 21    
Precipitation  
Precipitation 0.00 in - - ()
Sea Level Pressure  
Sea Level Pressure 29.97 in    
Wind  
Wind Speed 2 mph ()    
Max Wind Speed 9 mph    
Max Gust Speed -    
Averages and records for this station are not official NWS values.
T = Trace of Precipitation, MM = Missing Value Source: Averaged Metar Reports

Daily Weather History Graph

Daily Weather History Graph

Search for Another Location

Airport:

Trip Planner

Search our weather history database for the weather conditions in past years. The results will help you decide how hot, cold, wet, or windy it might be!

Date:

Astronomy

Jul. 31, 2013 Rise Set
Actual Time 7:26 AM CEST 9:30 PM CEST
Civil Twilight 6:57 AM CEST 9:59 PM CEST
Nautical Twilight 6:22 AM CEST 10:34 PM CEST
Astronomical Twilight 5:44 AM CEST 11:12 PM CEST
Moon 2:12 AM CEST 4:33 PM CEST
Length of Visible Light 15h 01m
Length of Day
14h 04m
Waning Crescent, 34% of the Moon is Illuminated
Jul 31
Waning Crescent
Aug 6
New
Aug 14
First Quarter
Aug 21
Full
Aug 28
Last Quarter

Hourly Weather History & Observations

Time (CEST) Temp. Heat Index Dew Point Humidity Pressure Visibility Wind Dir Wind Speed Gust Speed Precip Events Conditions
12:00 AM 77.0 °F - 50.0 °F 39% 30.04 in - Calm Calm - N/A   Clear
1:00 AM 77.0 °F - 51.8 °F 41% 30.04 in - North 2.3 mph - N/A   Clear
2:00 AM 71.6 °F - 51.8 °F 50% 30.04 in - North 3.5 mph - N/A   Clear
3:00 AM 68.0 °F - 50.0 °F 52% 30.01 in - Calm Calm - N/A   Clear
4:00 AM 68.0 °F - 48.2 °F 49% 30.01 in - North 3.5 mph - N/A   Clear
5:00 AM 64.4 °F - 48.2 °F 56% 30.01 in - Calm Calm - N/A   Clear
6:00 AM 62.6 °F - 48.2 °F 59% 29.98 in - ESE 2.3 mph - N/A   Clear
7:00 AM 62.6 °F - 46.4 °F 55% 29.98 in - SE 3.5 mph - N/A   Clear
8:00 AM 64.4 °F - 46.4 °F 52% 30.01 in - Calm Calm - N/A   Clear
9:00 AM 73.4 °F - 48.2 °F 41% 30.01 in - Calm Calm - N/A   Clear
10:00 AM 80.6 °F - 51.8 °F 37% 30.01 in - Calm Calm - N/A   Clear
11:00 AM 86.0 °F - 50.0 °F 29% 30.01 in - Calm Calm - N/A   Clear
12:00 PM 91.4 °F - 51.8 °F 26% 30.01 in - Variable 1.2 mph - N/A   Clear
1:00 PM 95.0 °F 92.7 °F 53.6 °F 25% 29.98 in - Variable 1.2 mph - N/A   Clear
2:00 PM 96.8 °F 95.1 °F 55.4 °F 25% 29.95 in - Variable 2.3 mph - N/A   Clear
3:00 PM 98.6 °F 97.2 °F 55.4 °F 24% 29.95 in - West 3.5 mph - N/A   Clear
4:00 PM 102.2 °F 100.9 °F 55.4 °F 21% 29.92 in - Variable 3.5 mph - N/A   Clear
5:00 PM 104.0 °F 104.6 °F 59.0 °F 23% 29.92 in - WSW 8.1 mph - N/A   Clear
6:00 PM 102.2 °F 102.4 °F 59.0 °F 24% 29.89 in - WSW 5.8 mph - N/A   Clear
7:00 PM 100.4 °F 99.7 °F 57.2 °F 24% 29.89 in - SW 8.1 mph - N/A   Clear
8:00 PM 100.4 °F 99.7 °F 57.2 °F 24% 29.86 in - SW 6.9 mph - N/A   Clear
9:00 PM 91.4 °F 90.7 °F 59.0 °F 34% 29.89 in - SW 9.2 mph - N/A   Clear
10:00 PM 86.0 °F 85.4 °F 59.0 °F 40% 29.89 in - SW 5.8 mph - N/A   Clear
11:00 PM 82.4 °F 82.0 °F 57.2 °F 42% 29.92 in - Calm Calm - N/A   Clear